Flag for Indonesia Weather past 2 weeks in Manado, North Sulawesi, Indonesia

Now
90 °F

Scattered clouds.


Feels Like: 95 °F
Forecast: 80 / 90 °F
Wind: 5 mph from Northwest

Location: Menado / Dr. Sam Ratulangi

Current Time: Jul 28, 2015 at 12:03:42 PM

Latest Report: Jul 28, 2015 at 11:00 AM


Visibility: N/A

Pressure: 29.89 "Hg

Humidity: 52%

Dew point: 70 °F

Location of ManadoLocation

Historic Weather in Manado — Graph

°F

Manado temperature yesterday

Maximum temperature yesterday: 91 °F (at 11:30 AM)
Minimum temperature yesterday: 70 °F (at 3:30 AM)
Average temperature yesterday: 83 °F

Past Weeks' High & Low Weather Summary

 TemperatureHumidityPressure
High93 °F (Jul 17, 2:00 PM)94% (Jul 17, 2:00 AM)29.98 "Hg (Jul 17, 2:00 AM)
Low66 °F (Jul 20, 3:30 AM)38% (Jul 15, 10:30 AM)29.74 "Hg (Jul 13, 2:30 PM)
Average82 °F65%29.87 "Hg
* Reported Jul 13 10:00 AM — Jul 28 10:00 AM, Manado, Weather by CustomWeather, © 2015

Note: Actual official high and low records may vary slightly from our data, if they occured in-between our weather recording intervals... More about our weather records

Advertising

Manado weather history for previous 24 hours

 ConditionsComfort  
Time TempWeatherWind HumidityBarometerVisibility
10:00 AM
Tue, Jul 28
88 °FPassing clouds.5 mph52%29.92 "HgN/A
9:30 AM88 °FPassing clouds.7 mph52%29.92 "HgN/A
9:00 AM88 °FPassing clouds.3 mph55%29.95 "HgN/A
8:30 AM84 °FPassing clouds.3 mph62%29.95 "HgN/A
8:00 AM82 °FPassing clouds.2 mph70%29.95 "HgN/A
7:30 AM81 °FPassing clouds.2 mph74%29.95 "HgN/A
7:00 AM75 °FPassing clouds.3 mph83%29.92 "HgN/A
5:30 AM68 °FPassing clouds.3 mph94%29.92 "HgN/A
5:00 AM70 °FPassing clouds.2 mph94%29.89 "HgN/A
3:30 AM70 °FPassing clouds.3 mph94%29.89 "HgN/A
2:30 AM72 °FPassing clouds.1 mph88%29.89 "HgN/A
2:00 AM72 °FPassing clouds.1 mph88%29.89 "HgN/A
11:30 PM
Mon, Jul 27
73 °FPassing clouds.2 mph89%29.92 "HgN/A
11:00 PM81 °FPassing clouds.7 mph62%29.92 "HgN/A
10:30 PM75 °FPassing clouds.2 mph83%29.95 "HgN/A
10:00 PM79 °FPassing clouds.7 mph70%29.95 "HgN/A
9:30 PM79 °FPassing clouds.2 mph74%29.95 "HgN/A
9:00 PM79 °FPassing clouds.3 mph74%29.92 "HgN/A
8:30 PM81 °FPassing clouds.6 mph66%29.92 "HgN/A
8:00 PM81 °FPassing clouds.7 mph66%29.92 "HgN/A
7:30 PM81 °FPassing clouds.3 mph70%29.89 "HgN/A
7:00 PM81 °FPassing clouds.3 mph79%29.89 "HgN/A
6:30 PM82 °FPassing clouds.2 mph70%29.89 "HgN/A
6:00 PM82 °FPassing clouds.2 mph70%29.89 "HgN/A
5:00 PM84 °FScattered clouds.3 mph66%29.86 "HgN/A
4:30 PM86 °FScattered clouds.5 mph59%29.86 "HgN/A
4:00 PM88 °FScattered clouds.5 mph55%29.83 "HgN/A
3:30 PM86 °FScattered clouds.6 mph62%29.83 "HgN/A
3:00 PM88 °FScattered clouds.6 mph59%29.83 "HgN/A
2:30 PM88 °FScattered clouds.6 mph59%29.83 "HgN/A
2:00 PM88 °FScattered clouds.6 mph59%29.86 "HgN/A
1:30 PM91 °FScattered clouds.5 mph52%29.86 "HgN/A
1:00 PM90 °FScattered clouds.5 mph52%29.86 "HgN/A
12:30 PM90 °FScattered clouds.5 mph52%29.86 "HgN/A
Weather by CustomWeather, © 2015

See weather overviewHow to use our weather pages